Starlink 32467

operational
NORAD ID: 61713 Int'l Des: 2024-196 Owner: SPXS Country: US Constellation: starlink
LEOCIRCULAR

Starlink 32467について

説明を読み込み中...

リアルタイム位置

3D地球を読み込み中...

次回通過

高度履歴

Altitude vs Time

uPlot chart will show altitude changes over time

軌道要素

1 61713U 24196G 25351.07818724 .00000988 00000-0 45477-4 0 9999
2 61713 53.1581 125.4038 0001049 97.6223 262.4897 15.30196324 64506
Epoch: Dec 17, 2025 • Age: 16 hours

現在のステータス

高度 476.1 km
速度 7.63 km/s
衛星直下点 0.87°N, 133.07°E
打ち上げ日 Oct 30, 2024
運用期間 1.1 years
タイプ internet

技術仕様

分類 Payload
質量 730.00 kg
乾燥質量 700.00 kg
総質量 730.00 kg
長さ 0.30 m
直径 4.10 m
スパン 29.00 m
形状 Box + pan
製造者 SPXS
バスタイプ Starlink V2M
フェーズステータス In Orbit
所有者/国 SPXS/US

大規模コンステレーション

Loading constellations...